Terug naar catalogus

COSMOS 1275 DEB

ActiefPO
NORAD 13483·DEBRIS·🇷🇺 Russia

Gelanceerd Jun 4, 1981 vanaf Plesetsk Cosmodrome

Loading…

Volgende Passages (komende 24 uur)

TLE

VersSource: Space-Track

Epoch: Sep 14, 2026, 07:33 UTC

1 13483U 81053GD  26257.31460904  .00001697  00000-0  74705-3 0  9994
2 13483  82.9236  14.1391 0010235 177.2886 212.2634 14.22941541260089

Volg COSMOS 1275 DEB in realtime met AllMySat

Download on the App Store